sat.trackr.live / text

‹ back to catalog

TRANSPORTER-12 OBJECT BA

NORAD 62657 · 2025-009BA

PAYLOAD ACTIVE UNKNOWN

§ Identity

Operator
Country
TBD
Launch date
2025-01-14
Launch site
AFWTR
Launch vehicle
Mass (kg)
RCS (m²)

External: N2YO · Heavens-Above · Gunter

§ Orbital elements

Epoch: 2026-09-22T16:46:12.769824Z

Period
94.09 min
Inclination
97.3891°
Eccentricity
0.0000519
Mean motion
15.30369091 rev/d
Perigee alt
474.4 km
Apogee alt
475.1 km
Semi-major
6,852.8 km
B*
2.0965e-4
RAAN
346.8761°
Arg perigee
357.5361°
Mean anomaly
2.5877°
Rev number
9,383

§ Raw data

TRANSPORTER-12 OBJECT BA1 62657U 25009BA  26265.69875891  .00006081  00000+0  20965-3 0  99952 62657  97.3891 346.8761 0000519 357.5361   2.5877 15.30369091 93834

JSON: /api/v1/satellites/62657 · /tle

For live sub-satellite position, see the globe view (requires WebGL).

§ Visibility from observer

Set your observer location to see the next 7 days of passes ≥ 10°. The values pass through the URL so the page stays shareable.

No JS? Fill the form by hand. The geolocation button needs JavaScript.